Location: Newark
(33.6333°S, 78.8500°W)
Time: 20:52:06
(UTC+00:00)

Courier 1B - Pass Details

Date: 29 September 2019
Orbit: 962 x 1209 km, 28.3° (Epoch: 18 October)

Event Time Altitude Azimuth Distance (km) Brightness Sun altitude
Rises 19:02:15 0° 303° (WNW) 4,064 11.4 48.7°
Reaches altitude 10° 19:05:13 10° 309° (NW) 3,122 11.1 48.2°
Maximum altitude 19:12:29 43° 17° (NNE) 1,647 9.5 47.1°
Drops below altitude 10° 19:19:47 10° 85° (E) 3,136 9.9 45.9°
Sets 19:22:46 0° 91° (E) 4,084 10.4 45.4°
